Time,TemperatureF,DewpointF,PressureIn,WindDirection,WindDirectionDegrees,WindSpeedMPH,WindSpeedGustMPH,Humidity,HourlyPrecipIn,Conditions,Clouds,dailyrainin,SolarRadiationWatts/m^2,SoftwareType,DateUTC
2013-01-03 00:04:00,43.2,38.4,30.15,WSW,255,0.0,0.0,83,0.00,OVC,,0.00,0.0,WeatherDisplay:10.37,2013-01-03 08:04:00,
2013-01-03 00:09:00,43.1,38.3,30.15,WSW,255,0.0,0.0,83,0.00,OVC,,0.00,0.0,WeatherDisplay:10.37,2013-01-03 08:09:00,
2013-01-03 00:14:00,43.0,38.2,30.15,WSW,255,0.0,0.0,83,0.00,OVC,,0.00,0.0,WeatherDisplay:10.37,2013-01-03 08:14:00,
2013-01-03 00:19:00,42.9,37.8,30.15,WSW,255,0.0,0.0,82,0.00,OVC,,0.00,0.0,WeatherDisplay:10.37,2013-01-03 08:19:00,
2013-01-03 00:24:00,42.7,37.9,30.15,WSW,255,0.0,0.0,83,0.00,OVC,,0.00,0.0,WeatherDisplay:10.37,2013-01-03 08:24:00,
2013-01-03 00:29:00,42.6,37.8,30.15,WSW,255,0.0,0.0,83,0.00,OVC,,0.00,0.0,WeatherDisplay:10.37,2013-01-03 08:29:00,
2013-01-03 00:34:00,42.4,37.6,30.15,WSW,255,0.0,0.0,83,0.00,OVC,,0.00,0.0,WeatherDisplay:10.37,2013-01-03 08:34:00,
2013-01-03 00:39:00,42.2,37.4,30.15,WSW,255,0.0,0.0,83,0.00,OVC,,0.00,0.0,WeatherDisplay:10.37,2013-01-03 08:39:00,
2013-01-03 00:44:00,42.0,37.5,30.15,WSW,255,0.0,0.0,84,0.00,OVC,,0.00,0.0,WeatherDisplay:10.37,2013-01-03 08:44:00,
2013-01-03 00:49:00,41.9,37.4,30.15,WSW,255,0.0,0.0,84,0.00,OVC,,0.00,0.0,WeatherDisplay:10.37,2013-01-03 08:49:00,
2013-01-03 00:54:00,41.9,37.7,30.15,WSW,255,0.0,0.0,85,0.00,OVC,,0.00,0.0,WeatherDisplay:10.37,2013-01-03 08:54:00,
2013-01-03 00:59:00,41.8,37.6,30.15,WSW,255,0.0,0.0,85,0.00,OVC,,0.00,0.0,WeatherDisplay:10.37,2013-01-03 08:59:00,
2013-01-03 01:04:00,41.7,37.5,30.15,WSW,255,0.0,0.0,85,0.00,OVC,,0.00,0.0,WeatherDisplay:10.37,2013-01-03 09:04:00,
2013-01-03 01:09:00,41.6,37.4,30.15,WSW,255,0.0,0.0,85,0.00,OVC,,0.00,0.0,WeatherDisplay:10.37,2013-01-03 09:09:00,
2013-01-03 01:14:00,41.5,37.3,30.15,WSW,255,0.0,0.0,85,0.00,OVC,,0.00,0.0,WeatherDisplay:10.37,2013-01-03 09:14:00,
2013-01-03 01:19:00,41.5,37.3,30.15,WSW,255,0.0,0.0,85,0.00,OVC,,0.00,0.0,WeatherDisplay:10.37,2013-01-03 09:19:00,
2013-01-03 01:24:00,41.5,37.6,30.15,WSW,255,0.0,0.0,86,0.00,OVC,,0.00,0.0,WeatherDisplay:10.37,2013-01-03 09:24:00,
2013-01-03 01:29:00,41.4,37.2,30.15,WSW,255,0.0,0.0,85,0.00,OVC,,0.00,0.0,WeatherDisplay:10.37,2013-01-03 09:29:00,
2013-01-03 01:34:00,41.3,37.4,30.15,WSW,255,0.0,0.0,86,0.00,OVC,,0.00,0.0,WeatherDisplay:10.37,2013-01-03 09:34:00,
2013-01-03 01:39:00,41.2,37.3,30.15,WSW,255,0.0,0.0,86,0.00,OVC,,0.00,0.0,WeatherDisplay:10.37,2013-01-03 09:39:00,
2013-01-03 01:44:00,41.2,37.3,30.15,WSW,255,0.0,0.0,86,0.00,OVC,,0.00,0.0,WeatherDisplay:10.37,2013-01-03 09:44:00,
2013-01-03 01:49:00,41.1,37.2,30.15,WSW,255,0.0,0.0,86,0.00,OVC,,0.00,0.0,WeatherDisplay:10.37,2013-01-03 09:49:00,
2013-01-03 01:54:00,41.0,37.1,30.15,WSW,255,0.0,0.0,86,0.00,OVC,,0.00,0.0,WeatherDisplay:10.37,2013-01-03 09:54:00,
2013-01-03 01:59:00,41.0,37.1,30.15,WSW,255,0.0,0.0,86,0.00,OVC,,0.00,0.0,WeatherDisplay:10.37,2013-01-03 09:59:00,
2013-01-03 02:04:00,40.9,37.0,30.15,WSW,255,0.0,0.0,86,0.00,OVC,,0.00,0.0,WeatherDisplay:10.37,2013-01-03 10:04:00,
2013-01-03 02:09:00,40.7,36.8,30.15,WSW,255,0.0,0.0,86,0.00,OVC,,0.00,0.0,WeatherDisplay:10.37,2013-01-03 10:09:00,
2013-01-03 02:14:00,40.6,36.7,30.15,WSW,255,0.0,0.0,86,0.00,OVC,,0.00,0.0,WeatherDisplay:10.37,2013-01-03 10:14:00,
2013-01-03 02:19:00,40.6,37.0,30.15,WSW,255,0.0,1.0,87,0.00,OVC,,0.00,0.0,WeatherDisplay:10.37,2013-01-03 10:19:00,
2013-01-03 02:24:00,40.6,37.0,30.15,WSW,255,0.0,0.0,87,0.00,OVC,,0.00,0.0,WeatherDisplay:10.37,2013-01-03 10:24:00,
2013-01-03 02:29:00,40.5,36.9,30.15,WSW,255,0.0,0.0,87,0.00,OVC,,0.00,0.0,WeatherDisplay:10.37,2013-01-03 10:29:00,
2013-01-03 02:34:00,40.4,36.8,30.15,WSW,255,0.0,0.0,87,0.00,OVC,,0.00,0.0,WeatherDisplay:10.37,2013-01-03 10:34:00,
2013-01-03 02:39:00,40.3,36.7,30.15,WSW,255,0.0,0.0,87,0.00,OVC,,0.00,0.0,WeatherDisplay:10.37,2013-01-03 10:39:00,
2013-01-03 02:44:00,40.3,36.7,30.15,WSW,255,0.0,0.0,87,0.00,OVC,,0.00,0.0,WeatherDisplay:10.37,2013-01-03 10:44:00,
2013-01-03 02:49:00,40.3,37.0,30.15,WSW,255,0.0,0.0,88,0.00,OVC,,0.00,0.0,WeatherDisplay:10.37,2013-01-03 10:49:00,
2013-01-03 02:54:00,40.4,37.1,30.16,WSW,255,0.0,0.0,88,0.00,OVC,,0.00,0.0,WeatherDisplay:10.37,2013-01-03 10:54:00,
2013-01-03 02:59:00,40.4,37.1,30.15,WSW,255,0.0,0.0,88,0.00,OVC,,0.00,0.0,WeatherDisplay:10.37,2013-01-03 10:59:00,
2013-01-03 03:04:00,40.4,36.8,30.15,WSW,255,0.0,0.0,87,0.00,OVC,,0.00,0.0,WeatherDisplay:10.37,2013-01-03 11:04:00,
2013-01-03 03:09:00,40.4,37.1,30.15,WSW,255,0.0,0.0,88,0.00,OVC,,0.00,0.0,WeatherDisplay:10.37,2013-01-03 11:09:00,
2013-01-03 03:14:00,40.3,36.8,30.15,WSW,255,0.0,0.0,87,0.00,OVC,,0.00,0.0,WeatherDisplay:10.37,2013-01-03 11:14:00,
2013-01-03 03:19:00,40.3,37.0,30.16,WSW,255,0.0,0.0,88,0.00,OVC,,0.00,0.0,WeatherDisplay:10.37,2013-01-03 11:19:00,
2013-01-03 03:24:00,40.2,36.9,30.15,WSW,255,0.0,0.0,88,0.00,OVC,,0.00,0.0,WeatherDisplay:10.37,2013-01-03 11:24:00,
2013-01-03 03:29:00,40.2,36.9,30.15,WSW,255,0.0,0.0,88,0.00,OVC,,0.00,0.0,WeatherDisplay:10.37,2013-01-03 11:29:00,
2013-01-03 03:34:00,40.1,36.8,30.15,WSW,255,0.0,0.0,88,0.00,OVC,,0.00,0.0,WeatherDisplay:10.37,2013-01-03 11:34:00,
2013-01-03 03:39:00,40.1,36.8,30.15,WSW,255,0.0,0.0,88,0.00,OVC,,0.00,0.0,WeatherDisplay:10.37,2013-01-03 11:39:00,
2013-01-03 03:44:00,40.0,36.7,30.15,WSW,255,0.0,0.0,88,0.00,OVC,,0.00,0.0,WeatherDisplay:10.37,2013-01-03 11:44:00,
2013-01-03 03:49:00,40.0,36.7,30.15,WSW,255,0.0,0.0,88,0.00,OVC,,0.00,0.0,WeatherDisplay:10.37,2013-01-03 11:49:00,
2013-01-03 03:54:00,39.9,36.6,30.15,WSW,255,0.0,0.0,88,0.00,OVC,,0.00,0.0,WeatherDisplay:10.37,2013-01-03 11:54:00,
2013-01-03 03:59:00,39.8,36.5,30.15,WSW,255,0.0,0.0,88,0.00,OVC,,0.00,0.0,WeatherDisplay:10.37,2013-01-03 11:59:00,
2013-01-03 04:04:00,39.8,36.5,30.15,WSW,255,0.0,0.0,88,0.00,OVC,,0.00,0.0,WeatherDisplay:10.37,2013-01-03 12:04:00,
2013-01-03 04:09:00,39.7,36.4,30.15,WSW,255,0.0,0.0,88,0.00,OVC,,0.00,0.0,WeatherDisplay:10.37,2013-01-03 12:09:00,
2013-01-03 04:14:00,39.6,36.3,30.15,WSW,255,0.0,0.0,88,0.00,OVC,,0.00,0.0,WeatherDisplay:10.37,2013-01-03 12:14:00,
2013-01-03 04:19:00,39.6,36.6,30.15,WSW,255,0.0,0.0,89,0.00,OVC,,0.00,0.0,WeatherDisplay:10.37,2013-01-03 12:19:00,
2013-01-03 04:24:00,39.6,36.3,30.15,WSW,255,0.0,0.0,88,0.00,OVC,,0.00,0.0,WeatherDisplay:10.37,2013-01-03 12:24:00,
2013-01-03 04:29:00,39.5,36.5,30.15,WSW,255,0.0,0.0,89,0.00,OVC,,0.00,0.0,WeatherDisplay:10.37,2013-01-03 12:29:00,
2013-01-03 04:34:00,39.5,36.5,30.15,WSW,255,0.0,0.0,89,0.00,OVC,,0.00,0.0,WeatherDisplay:10.37,2013-01-03 12:34:00,
2013-01-03 04:39:00,39.4,36.4,30.15,WSW,255,0.0,0.0,89,0.00,OVC,,0.00,0.0,WeatherDisplay:10.37,2013-01-03 12:39:00,
2013-01-03 04:44:00,39.5,36.5,30.15,WSW,255,0.0,0.0,89,0.00,OVC,,0.00,0.0,WeatherDisplay:10.37,2013-01-03 12:44:00,
2013-01-03 04:49:00,39.5,36.5,30.15,WSW,255,0.0,0.0,89,0.00,OVC,,0.00,0.0,WeatherDisplay:10.37,2013-01-03 12:49:00,
2013-01-03 04:54:00,39.5,36.6,30.15,WSW,255,0.0,0.0,89,0.00,OVC,,0.00,0.0,WeatherDisplay:10.37,2013-01-03 12:54:00,
2013-01-03 04:59:00,39.6,36.6,30.15,WSW,255,0.0,0.0,89,0.00,OVC,,0.00,0.0,WeatherDisplay:10.37,2013-01-03 12:59:00,
2013-01-03 05:04:00,39.6,36.6,30.15,WSW,255,0.0,0.0,89,0.00,OVC,,0.00,0.0,WeatherDisplay:10.37,2013-01-03 13:04:00,
2013-01-03 05:09:00,39.6,36.6,30.15,WSW,255,0.0,0.0,89,0.00,OVC,,0.00,0.0,WeatherDisplay:10.37,2013-01-03 13:09:00,
2013-01-03 05:14:00,39.6,36.6,30.15,WSW,255,0.0,0.0,89,0.00,OVC,,0.00,0.0,WeatherDisplay:10.37,2013-01-03 13:14:00,
2013-01-03 05:19:00,39.5,36.5,30.15,WSW,255,0.0,0.0,89,0.00,OVC,,0.00,0.0,WeatherDisplay:10.37,2013-01-03 13:19:00,
2013-01-03 05:24:00,39.5,36.8,30.15,WSW,255,0.0,0.0,90,0.00,OVC,,0.00,0.0,WeatherDisplay:10.37,2013-01-03 13:24:00,
2013-01-03 05:29:00,39.5,36.8,30.15,WSW,255,0.0,0.0,90,0.00,OVC,,0.00,0.0,WeatherDisplay:10.37,2013-01-03 13:29:00,
2013-01-03 05:34:00,39.6,36.9,30.15,WSW,255,0.0,0.0,90,0.00,OVC,,0.00,0.0,WeatherDisplay:10.37,2013-01-03 13:34:00,
2013-01-03 05:39:00,39.6,36.9,30.15,WSW,255,0.0,0.0,90,0.00,OVC,,0.00,0.0,WeatherDisplay:10.37,2013-01-03 13:39:00,
2013-01-03 05:44:00,39.7,37.0,30.15,WSW,255,0.0,0.0,90,0.00,OVC,,0.00,0.0,WeatherDisplay:10.37,2013-01-03 13:44:00,
2013-01-03 05:49:00,39.8,37.1,30.15,WSW,255,0.0,0.0,90,0.00,OVC,,0.00,0.0,WeatherDisplay:10.37,2013-01-03 13:49:00,
2013-01-03 05:54:00,39.8,37.1,30.15,WSW,255,0.0,0.0,90,0.00,OVC,,0.00,0.0,WeatherDisplay:10.37,2013-01-03 13:54:00,
2013-01-03 05:59:00,39.8,37.1,30.15,WSW,255,0.0,2.3,90,0.00,OVC,,0.00,0.0,WeatherDisplay:10.37,2013-01-03 13:59:00,
2013-01-03 06:04:00,39.8,37.1,30.15,WSW,255,0.0,0.0,90,0.00,OVC,,0.00,0.0,WeatherDisplay:10.37,2013-01-03 14:04:00,
2013-01-03 06:09:00,39.9,37.2,30.16,WSW,255,0.0,0.0,90,0.00,OVC,,0.00,0.0,WeatherDisplay:10.37,2013-01-03 14:09:00,
2013-01-03 06:14:00,39.9,37.2,30.16,WSW,255,0.0,0.0,90,0.00,OVC,,0.00,0.0,WeatherDisplay:10.37,2013-01-03 14:14:00,
2013-01-03 06:19:00,39.9,37.2,30.16,WSW,255,0.0,0.0,90,0.00,OVC,,0.00,0.0,WeatherDisplay:10.37,2013-01-03 14:19:00,
2013-01-03 06:24:00,39.9,37.2,30.16,WSW,255,0.0,0.0,90,0.00,OVC,,0.00,0.0,WeatherDisplay:10.37,2013-01-03 14:24:00,
2013-01-03 06:29:00,39.9,37.2,30.17,WSW,255,0.0,0.0,90,0.00,OVC,,0.00,0.0,WeatherDisplay:10.37,2013-01-03 14:29:00,
2013-01-03 06:34:00,40.0,37.3,30.17,WSW,255,0.0,0.0,90,0.00,OVC,,0.00,0.0,WeatherDisplay:10.37,2013-01-03 14:34:00,
2013-01-03 06:39:00,39.9,37.2,30.17,WSW,255,0.0,0.0,90,0.00,OVC,,0.00,0.0,WeatherDisplay:10.37,2013-01-03 14:39:00,
2013-01-03 06:44:00,39.9,37.5,30.17,WSW,255,0.0,0.0,91,0.00,OVC,,0.00,0.0,WeatherDisplay:10.37,2013-01-03 14:44:00,
2013-01-03 06:49:00,39.9,37.5,30.17,WSW,255,0.0,0.0,91,0.00,OVC,,0.00,0.0,WeatherDisplay:10.37,2013-01-03 14:49:00,
2013-01-03 06:54:00,39.9,37.5,30.16,WSW,255,0.0,0.0,91,0.00,OVC,,0.00,0.0,WeatherDisplay:10.37,2013-01-03 14:54:00,
2013-01-03 06:59:00,39.9,37.5,30.17,WSW,255,0.0,0.0,91,0.00,OVC,,0.00,0.0,WeatherDisplay:10.37,2013-01-03 14:59:00,
2013-01-03 07:05:00,39.9,37.2,30.17,WSW,255,0.0,0.0,90,0.00,OVC,,0.00,0.0,WeatherDisplay:10.37,2013-01-03 15:05:00,
2013-01-03 07:10:00,39.9,37.5,30.17,WSW,255,0.0,0.0,91,0.00,OVC,,0.00,0.0,WeatherDisplay:10.37,2013-01-03 15:10:00,
2013-01-03 07:15:00,39.9,37.5,30.17,WSW,255,0.0,0.0,91,0.00,OVC,,0.00,0.0,WeatherDisplay:10.37,2013-01-03 15:15:00,
2013-01-03 07:20:00,40.0,37.6,30.18,WSW,250,0.9,2.3,91,0.00,OVC,,0.00,7.0,WeatherDisplay:10.37,2013-01-03 15:20:00,
2013-01-03 07:25:00,40.7,38.8,30.17,NE,38,2.5,3.5,93,0.00,OVC,,0.00,9.0,WeatherDisplay:10.37,2013-01-03 15:25:00,
2013-01-03 07:30:00,41.6,39.4,30.17,NE,52,0.4,2.3,92,0.00,OVC,,0.00,9.0,WeatherDisplay:10.37,2013-01-03 15:30:00,
2013-01-03 07:35:00,41.9,39.5,30.17,NE,52,0.4,1.1,91,0.00,OVC,,0.00,19.0,WeatherDisplay:10.37,2013-01-03 15:35:00,
2013-01-03 07:40:00,42.2,39.8,30.18,NE,56,0.0,0.0,91,0.00,OVC,,0.00,32.0,WeatherDisplay:10.37,2013-01-03 15:40:00,
2013-01-03 07:45:00,42.4,39.7,30.17,NE,56,0.0,0.0,90,0.00,OVC,,0.00,42.0,WeatherDisplay:10.37,2013-01-03 15:45:00,
2013-01-03 07:50:00,42.7,40.0,30.18,NE,56,0.0,0.0,90,0.00,OVC,,0.00,54.0,WeatherDisplay:10.37,2013-01-03 15:50:00,
2013-01-03 07:55:00,42.8,39.8,30.18,NE,56,0.0,0.0,89,0.00,OVC,,0.00,60.0,WeatherDisplay:10.37,2013-01-03 15:55:00,
2013-01-03 08:00:00,43.1,39.8,30.18,ENE,69,2.3,4.6,88,0.00,OVC,,0.00,81.0,WeatherDisplay:10.37,2013-01-03 16:00:00,
2013-01-03 08:05:00,43.4,39.8,30.18,East,88,1.1,3.5,87,0.00,OVC,,0.00,93.0,WeatherDisplay:10.37,2013-01-03 16:05:00,
2013-01-03 08:10:00,43.7,40.1,30.19,East,86,1.8,3.5,87,0.00,OVC,,0.00,102.0,WeatherDisplay:10.37,2013-01-03 16:10:00,
2013-01-03 08:15:00,44.0,40.4,30.19,East,86,0.3,1.1,87,0.00,OVC,,0.00,76.0,WeatherDisplay:10.37,2013-01-03 16:15:00,
2013-01-03 08:20:00,44.3,40.4,30.19,East,87,1.4,3.5,86,0.00,CLR,,0.00,56.0,WeatherDisplay:10.37,2013-01-03 16:20:00,
2013-01-03 08:25:00,44.3,40.4,30.19,East,87,2.0,3.5,86,0.00,CLR,,0.00,46.0,WeatherDisplay:10.37,2013-01-03 16:25:00,
2013-01-03 08:30:00,44.2,40.0,30.20,East,87,1.0,2.3,85,0.00,CLR,,0.00,42.0,WeatherDisplay:10.37,2013-01-03 16:30:00,
2013-01-03 08:35:00,44.0,39.8,30.20,East,86,0.0,1.1,85,0.00,CLR,,0.00,69.0,WeatherDisplay:10.37,2013-01-03 16:35:00,
2013-01-03 08:40:00,44.0,39.8,30.20,East,87,0.0,0.0,85,0.00,CLR,,0.00,109.0,WeatherDisplay:10.37,2013-01-03 16:40:00,
2013-01-03 08:45:00,44.2,40.3,30.20,East,87,0.0,0.0,86,0.00,CLR,,0.00,81.0,WeatherDisplay:10.37,2013-01-03 16:45:00,
2013-01-03 08:50:00,44.3,40.4,30.20,East,87,0.0,0.0,86,0.00,CLR,,0.00,65.0,WeatherDisplay:10.37,2013-01-03 16:50:00,
2013-01-03 08:55:00,44.4,40.5,30.21,ESE,105,0.0,0.0,86,0.00,CLR,,0.00,81.0,WeatherDisplay:10.37,2013-01-03 16:55:00,
2013-01-03 09:00:00,44.6,40.4,30.21,ESE,106,0.0,0.0,85,0.00,CLR,,0.00,107.0,WeatherDisplay:10.37,2013-01-03 17:00:00,
2013-01-03 09:05:00,44.7,40.8,30.21,ESE,106,0.0,0.0,86,0.00,CLR,,0.00,162.0,WeatherDisplay:10.37,2013-01-03 17:05:00,
2013-01-03 09:10:00,45.1,41.2,30.21,ESE,106,0.0,0.0,86,0.00,CLR,,0.00,209.0,WeatherDisplay:10.37,2013-01-03 17:10:00,
2013-01-03 09:15:00,45.7,41.8,30.22,ESE,106,0.0,0.0,86,0.00,CLR,,0.00,135.0,WeatherDisplay:10.37,2013-01-03 17:15:00,
2013-01-03 09:20:00,46.3,42.0,30.22,ESE,106,0.0,0.0,85,0.00,CLR,,0.00,156.0,WeatherDisplay:10.37,2013-01-03 17:20:00,
2013-01-03 09:25:00,46.3,41.4,30.22,ESE,106,0.0,0.0,83,0.00,CLR,,0.00,169.0,WeatherDisplay:10.37,2013-01-03 17:25:00,
2013-01-03 09:30:00,46.5,41.3,30.22,ESE,106,0.0,0.0,82,0.00,CLR,,0.00,156.0,WeatherDisplay:10.37,2013-01-03 17:30:00,
2013-01-03 09:35:00,46.6,41.4,30.22,ESE,106,0.0,0.0,82,0.00,CLR,,0.00,160.0,WeatherDisplay:10.37,2013-01-03 17:35:00,
2013-01-03 09:40:00,46.7,41.2,30.22,ESE,106,0.0,0.0,81,0.00,CLR,,0.00,179.0,WeatherDisplay:10.37,2013-01-03 17:40:00,
2013-01-03 09:45:00,46.8,40.6,30.22,ESE,106,0.0,0.0,79,0.00,CLR,,0.00,200.0,WeatherDisplay:10.37,2013-01-03 17:45:00,
2013-01-03 09:50:00,46.9,40.7,30.22,ESE,106,0.0,0.0,79,0.00,CLR,,0.00,229.0,WeatherDisplay:10.37,2013-01-03 17:50:00,
2013-01-03 09:55:00,46.9,40.4,30.22,ESE,106,0.0,0.0,78,0.00,CLR,,0.00,241.0,WeatherDisplay:10.37,2013-01-03 17:55:00,
2013-01-03 10:00:00,46.8,40.3,30.22,ESE,106,1.1,3.5,78,0.00,CLR,,0.00,269.0,WeatherDisplay:10.37,2013-01-03 18:00:00,
2013-01-03 10:05:00,46.9,40.7,30.22,ESE,106,0.6,1.1,79,0.00,CLR,,0.00,290.0,WeatherDisplay:10.37,2013-01-03 18:05:00,
2013-01-03 10:10:00,47.0,40.5,30.22,North,10,1.5,4.6,78,0.00,CLR,,0.00,308.0,WeatherDisplay:10.37,2013-01-03 18:10:00,
2013-01-03 10:15:00,47.1,40.9,30.22,NNE,32,0.0,0.0,79,0.00,CLR,,0.00,362.0,WeatherDisplay:10.37,2013-01-03 18:15:00,
2013-01-03 10:20:00,47.2,40.4,30.22,NNE,31,0.0,0.0,77,0.00,CLR,,0.00,381.0,WeatherDisplay:10.37,2013-01-03 18:20:00,
2013-01-03 10:25:00,47.3,40.8,30.22,NE,35,0.0,0.0,78,0.00,CLR,,0.00,387.0,WeatherDisplay:10.37,2013-01-03 18:25:00,
2013-01-03 10:30:00,47.3,40.5,30.22,NE,34,3.4,4.6,77,0.00,CLR,,0.00,397.0,WeatherDisplay:10.37,2013-01-03 18:30:00,
2013-01-03 10:35:00,47.3,40.1,30.22,NE,34,3.5,4.6,76,0.00,CLR,,0.00,406.0,WeatherDisplay:10.37,2013-01-03 18:35:00,
2013-01-03 10:40:00,47.5,40.6,30.22,NNW,344,0.5,4.6,77,0.00,CLR,,0.00,413.0,WeatherDisplay:10.37,2013-01-03 18:40:00,
2013-01-03 10:45:00,47.8,40.6,30.22,NE,46,0.0,2.3,76,0.00,CLR,,0.00,422.0,WeatherDisplay:10.37,2013-01-03 18:45:00,
2013-01-03 10:50:00,48.1,40.2,30.22,North,5,2.3,3.0,74,0.00,CLR,,0.00,424.0,WeatherDisplay:10.37,2013-01-03 18:50:00,
2013-01-03 10:55:00,48.2,40.3,30.22,NE,52,1.8,3.5,74,0.00,CLR,,0.00,425.0,WeatherDisplay:10.37,2013-01-03 18:55:00,
2013-01-03 11:00:00,48.2,39.9,30.22,NNW,343,3.1,3.5,73,0.00,CLR,,0.00,429.0,WeatherDisplay:10.37,2013-01-03 19:00:00,
2013-01-03 11:05:00,48.3,40.4,30.22,NE,42,0.0,0.0,74,0.00,CLR,,0.00,439.0,WeatherDisplay:10.37,2013-01-03 19:05:00,
2013-01-03 11:10:00,48.6,40.3,30.22,North,350,3.0,4.6,73,0.00,CLR,,0.00,438.0,WeatherDisplay:10.37,2013-01-03 19:10:00,
2013-01-03 11:15:00,48.7,40.1,30.22,NNE,24,3.6,4.6,72,0.00,CLR,,0.00,441.0,WeatherDisplay:10.37,2013-01-03 19:15:00,
2013-01-03 11:51:00,49.3,39.9,30.21,NE,48,0.5,3.5,70,0.00,CLR,,0.00,459.0,WeatherDisplay:10.37,2013-01-03 19:51:00,
2013-01-03 11:56:00,49.7,39.9,30.21,North,10,0.9,5.0,69,0.00,CLR,,0.00,471.0,WeatherDisplay:10.37,2013-01-03 19:56:00,
2013-01-03 12:01:00,49.7,39.6,30.21,NNE,19,2.2,3.5,68,0.00,CLR,,0.00,362.0,WeatherDisplay:10.37,2013-01-03 20:01:00,
2013-01-03 12:06:00,49.7,39.6,30.20,NNE,19,2.1,2.3,68,0.00,CLR,,0.00,466.0,WeatherDisplay:10.37,2013-01-03 20:06:00,
2013-01-03 12:11:00,49.9,39.8,30.20,NE,40,1.0,3.5,68,0.00,CLR,,0.00,459.0,WeatherDisplay:10.37,2013-01-03 20:11:00,
2013-01-03 12:16:00,50.2,40.0,30.20,NE,41,2.8,3.5,68,0.00,CLR,,0.00,459.0,WeatherDisplay:10.37,2013-01-03 20:16:00,
2013-01-03 12:21:00,50.3,39.8,30.20,NNW,328,1.7,2.0,67,0.00,CLR,,0.00,454.0,WeatherDisplay:10.37,2013-01-03 20:21:00,
2013-01-03 12:26:00,50.5,39.9,30.20,NNW,330,0.0,0.0,67,0.00,CLR,,0.00,459.0,WeatherDisplay:10.37,2013-01-03 20:26:00,
2013-01-03 12:31:00,51.0,40.4,30.20,NNW,331,0.0,0.0,67,0.00,CLR,,0.00,455.0,WeatherDisplay:10.37,2013-01-03 20:31:00,
2013-01-03 12:36:00,51.5,40.1,30.20,NNW,333,0.0,0.0,65,0.00,CLR,,0.00,450.0,WeatherDisplay:10.37,2013-01-03 20:36:00,
2013-01-03 12:41:00,51.8,40.8,30.19,NE,46,0.0,0.0,66,0.00,CLR,,0.00,445.0,WeatherDisplay:10.37,2013-01-03 20:41:00,
2013-01-03 12:46:00,52.0,40.6,30.19,NNE,20,0.0,0.0,65,0.00,CLR,,0.00,443.0,WeatherDisplay:10.37,2013-01-03 20:46:00,
2013-01-03 12:51:00,52.3,40.9,30.19,NE,40,0.0,0.0,65,0.00,CLR,,0.00,434.0,WeatherDisplay:10.37,2013-01-03 20:51:00,
2013-01-03 12:56:00,52.5,41.1,30.19,NNW,344,1.8,0.0,65,0.00,CLR,,0.00,434.0,WeatherDisplay:10.37,2013-01-03 20:56:00,
2013-01-03 13:01:00,52.8,41.0,30.19,NNW,348,0.0,0.0,64,0.00,CLR,,0.00,432.0,WeatherDisplay:10.37,2013-01-03 21:01:00,
2013-01-03 13:06:00,53.1,41.2,30.19,North,354,0.0,0.0,64,0.00,CLR,,0.00,427.0,WeatherDisplay:10.37,2013-01-03 21:06:00,
2013-01-03 13:11:00,53.2,41.3,30.18,North,354,0.0,0.0,64,0.00,CLR,,0.00,420.0,WeatherDisplay:10.37,2013-01-03 21:11:00,
2013-01-03 13:16:00,53.4,41.1,30.18,North,354,0.0,0.0,63,0.00,CLR,,0.00,415.0,WeatherDisplay:10.37,2013-01-03 21:16:00,
2013-01-03 13:22:00,53.5,41.2,30.18,North,354,0.0,0.0,63,0.00,CLR,,0.00,410.0,WeatherDisplay:10.37,2013-01-03 21:22:00,
2013-01-03 13:27:00,53.8,41.1,30.18,North,356,0.0,3.5,62,0.00,CLR,,0.00,404.0,WeatherDisplay:10.37,2013-01-03 21:27:00,
2013-01-03 13:32:00,54.2,41.0,30.18,NE,46,0.2,2.3,61,0.00,CLR,,0.00,399.0,WeatherDisplay:10.37,2013-01-03 21:32:00,
2013-01-03 13:37:00,54.5,40.9,30.19,NE,48,0.0,0.0,60,0.00,CLR,,0.00,394.0,WeatherDisplay:10.37,2013-01-03 21:37:00,
2013-01-03 13:42:00,55.0,41.4,30.18,NNW,345,0.1,1.1,60,0.00,CLR,,0.00,383.0,WeatherDisplay:10.37,2013-01-03 21:42:00,
2013-01-03 13:47:00,55.2,40.7,30.18,ENE,70,0.6,3.5,58,0.00,CLR,,0.00,376.0,WeatherDisplay:10.37,2013-01-03 21:47:00,
2013-01-03 13:52:00,55.0,40.9,30.18,ENE,71,0.0,0.0,59,0.00,CLR,,0.00,366.0,WeatherDisplay:10.37,2013-01-03 21:52:00,
2013-01-03 13:57:00,54.9,41.3,30.18,North,1,0.3,3.5,60,0.00,CLR,,0.00,357.0,WeatherDisplay:10.37,2013-01-03 21:57:00,
2013-01-03 14:02:00,54.8,41.2,30.18,North,5,0.0,2.3,60,0.00,CLR,,0.00,352.0,WeatherDisplay:10.37,2013-01-03 22:02:00,
2013-01-03 14:07:00,55.1,41.5,30.18,NNW,333,0.1,2.3,60,0.00,CLR,,0.00,343.0,WeatherDisplay:10.37,2013-01-03 22:07:00,
2013-01-03 14:12:00,55.3,41.6,30.18,NNW,340,0.0,0.0,60,0.00,CLR,,0.00,336.0,WeatherDisplay:10.37,2013-01-03 22:12:00,
2013-01-03 14:17:00,55.5,41.8,30.18,North,352,1.2,3.5,60,0.00,FEW,,0.00,329.0,WeatherDisplay:10.37,2013-01-03 22:17:00,
2013-01-03 14:22:00,55.2,41.5,30.18,North,360,1.3,3.5,60,0.00,FEW,,0.00,322.0,WeatherDisplay:10.37,2013-01-03 22:22:00,
2013-01-03 14:27:00,55.1,41.5,30.18,NNW,348,4.0,5.0,60,0.00,FEW,,0.00,311.0,WeatherDisplay:10.37,2013-01-03 22:27:00,
2013-01-03 14:32:00,54.9,41.7,30.18,NNW,341,0.0,0.0,61,0.00,FEW,,0.00,301.0,WeatherDisplay:10.37,2013-01-03 22:32:00,
2013-01-03 14:37:00,55.0,41.4,30.18,NNW,343,0.0,1.0,60,0.00,FEW,,0.00,290.0,WeatherDisplay:10.37,2013-01-03 22:37:00,
2013-01-03 14:42:00,55.2,41.5,30.18,North,360,0.0,0.0,60,0.00,FEW,,0.00,281.0,WeatherDisplay:10.37,2013-01-03 22:42:00,
2013-01-03 14:47:00,55.2,41.5,30.18,North,350,1.1,2.3,60,0.00,FEW,,0.00,272.0,WeatherDisplay:10.37,2013-01-03 22:47:00,
2013-01-03 14:52:00,55.3,41.6,30.18,North,10,0.0,0.0,60,0.00,FEW,,0.00,262.0,WeatherDisplay:10.37,2013-01-03 22:52:00,
2013-01-03 14:57:00,55.0,41.4,30.18,North,358,1.3,3.5,60,0.00,SCT,,0.00,250.0,WeatherDisplay:10.37,2013-01-03 22:57:00,
2013-01-03 15:02:00,55.1,41.5,30.18,North,358,0.0,1.0,60,0.00,SCT,,0.00,237.0,WeatherDisplay:10.37,2013-01-03 23:02:00,
2013-01-03 15:07:00,55.2,41.5,30.18,NNE,27,0.0,0.0,60,0.00,SCT,,0.00,229.0,WeatherDisplay:10.37,2013-01-03 23:07:00,
2013-01-03 15:12:00,55.4,41.7,30.18,NNE,28,0.0,0.0,60,0.00,SCT,,0.00,218.0,WeatherDisplay:10.37,2013-01-03 23:12:00,
2013-01-03 15:17:00,55.3,41.6,30.18,North,358,0.5,3.5,60,0.00,SCT,,0.00,207.0,WeatherDisplay:10.37,2013-01-03 23:17:00,
2013-01-03 15:22:00,55.3,42.1,30.18,North,359,2.6,3.5,61,0.00,SCT,,0.00,195.0,WeatherDisplay:10.37,2013-01-03 23:22:00,
2013-01-03 15:27:00,55.2,42.0,30.18,NNW,343,3.4,5.0,61,0.00,SCT,,0.00,185.0,WeatherDisplay:10.37,2013-01-03 23:27:00,
2013-01-03 15:32:00,55.1,41.9,30.18,North,351,0.2,3.5,61,0.00,SCT,,0.00,176.0,WeatherDisplay:10.37,2013-01-03 23:32:00,
2013-01-03 15:37:00,55.1,41.5,30.18,NNW,346,2.5,4.6,60,0.00,SCT,,0.00,165.0,WeatherDisplay:10.37,2013-01-03 23:37:00,
2013-01-03 15:42:00,54.8,42.0,30.19,NNW,346,1.7,5.8,62,0.00,SCT,,0.00,155.0,WeatherDisplay:10.37,2013-01-03 23:42:00,
2013-01-03 15:47:00,54.7,41.9,30.19,North,354,0.0,3.5,62,0.00,SCT,,0.00,144.0,WeatherDisplay:10.37,2013-01-03 23:47:00,
2013-01-03 15:52:00,54.6,42.3,30.19,NNW,343,1.3,3.5,63,0.00,SCT,,0.00,95.0,WeatherDisplay:10.37,2013-01-03 23:52:00,
2013-01-03 15:57:00,54.5,42.2,30.19,North,358,1.9,3.5,63,0.00,BKN,,0.00,118.0,WeatherDisplay:10.37,2013-01-03 23:57:00,
2013-01-03 16:02:00,54.5,42.2,30.19,North,10,2.3,2.3,63,0.00,BKN,,0.00,102.0,WeatherDisplay:10.37,2013-01-04 00:02:00,
2013-01-03 16:07:00,54.5,42.2,30.19,North,358,1.4,3.5,63,0.00,BKN,,0.00,90.0,WeatherDisplay:10.37,2013-01-04 00:07:00,
2013-01-03 16:12:00,54.4,42.1,30.19,North,360,1.5,5.0,63,0.00,BKN,,0.00,77.0,WeatherDisplay:10.37,2013-01-04 00:12:00,
2013-01-03 16:17:00,54.2,41.9,30.20,NNW,341,1.4,3.0,63,0.00,BKN,,0.00,65.0,WeatherDisplay:10.37,2013-01-04 00:17:00,
2013-01-03 16:22:00,54.1,41.8,30.20,NNW,341,3.9,6.9,63,0.00,BKN,,0.00,32.0,WeatherDisplay:10.37,2013-01-04 00:22:00,
2013-01-03 16:27:00,53.9,41.6,30.20,NW,319,2.6,4.6,63,0.00,BKN,,0.00,21.0,WeatherDisplay:10.37,2013-01-04 00:27:00,
2013-01-03 16:32:00,53.5,41.2,30.20,North,10,4.9,9.2,63,0.00,BKN,,0.00,19.0,WeatherDisplay:10.37,2013-01-04 00:32:00,
2013-01-03 16:37:00,53.0,41.1,30.20,North,5,2.7,4.6,64,0.00,BKN,,0.00,16.0,WeatherDisplay:10.37,2013-01-04 00:37:00,
2013-01-03 16:42:00,52.8,41.0,30.20,NNW,343,1.5,2.0,64,0.00,OVC,,0.00,14.0,WeatherDisplay:10.37,2013-01-04 00:42:00,
2013-01-03 16:47:00,52.6,40.8,30.20,North,359,2.3,3.5,64,0.00,OVC,,0.00,12.0,WeatherDisplay:10.37,2013-01-04 00:47:00,
2013-01-03 16:52:00,52.5,40.7,30.20,NNW,328,2.1,5.0,64,0.00,OVC,,0.00,9.0,WeatherDisplay:10.37,2013-01-04 00:52:00,
2013-01-03 16:57:00,52.3,40.5,30.20,North,360,1.3,5.8,64,0.00,OVC,,0.00,7.0,WeatherDisplay:10.37,2013-01-04 00:57:00,
2013-01-03 17:02:00,52.2,40.4,30.20,North,10,3.7,6.9,64,0.00,OVC,,0.00,5.0,WeatherDisplay:10.37,2013-01-04 01:02:00,
2013-01-03 17:07:00,52.1,40.3,30.20,NNW,343,1.4,3.5,64,0.00,OVC,,0.00,0.0,WeatherDisplay:10.37,2013-01-04 01:07:00,
2013-01-03 17:12:00,51.9,40.1,30.20,North,353,3.9,6.9,64,0.00,OVC,,0.00,0.0,WeatherDisplay:10.37,2013-01-04 01:12:00,
2013-01-03 17:17:00,51.8,40.0,30.20,NNW,343,0.0,3.5,64,0.00,OVC,,0.00,0.0,WeatherDisplay:10.37,2013-01-04 01:17:00,
2013-01-03 17:22:00,51.6,39.8,30.20,NNW,333,4.0,5.0,64,0.00,OVC,,0.00,0.0,WeatherDisplay:10.37,2013-01-04 01:22:00,
2013-01-03 17:27:00,51.5,39.7,30.21,North,354,4.2,4.2,64,0.00,OVC,,0.00,0.0,WeatherDisplay:10.37,2013-01-04 01:27:00,
2013-01-03 17:32:00,51.4,39.6,30.21,NNW,335,1.0,3.5,64,0.00,OVC,,0.00,0.0,WeatherDisplay:10.37,2013-01-04 01:32:00,
2013-01-03 17:37:00,51.3,39.9,30.21,NW,319,2.3,5.8,65,0.00,OVC,,0.00,0.0,WeatherDisplay:10.37,2013-01-04 01:37:00,
2013-01-03 17:42:00,51.2,39.8,30.21,North,352,2.4,3.5,65,0.00,OVC,,0.00,0.0,WeatherDisplay:10.37,2013-01-04 01:42:00,
2013-01-03 17:47:00,51.1,39.7,30.21,NNW,341,2.8,4.6,65,0.00,OVC,,0.00,0.0,WeatherDisplay:10.37,2013-01-04 01:47:00,
2013-01-03 17:52:00,51.0,40.0,30.21,North,10,0.0,0.0,66,0.00,OVC,,0.00,0.0,WeatherDisplay:10.37,2013-01-04 01:52:00,
2013-01-03 17:57:00,50.9,39.9,30.21,North,360,2.2,3.5,66,0.00,OVC,,0.00,0.0,WeatherDisplay:10.37,2013-01-04 01:57:00,
2013-01-03 18:02:00,50.8,39.8,30.22,NNW,339,0.9,2.3,66,0.00,OVC,,0.00,0.0,WeatherDisplay:10.37,2013-01-04 02:02:00,
2013-01-03 18:07:00,50.7,40.1,30.22,North,357,1.7,4.6,67,0.00,OVC,,0.00,0.0,WeatherDisplay:10.37,2013-01-04 02:07:00,
2013-01-03 18:12:00,50.7,40.1,30.22,North,353,0.0,0.0,67,0.00,OVC,,0.00,0.0,WeatherDisplay:10.37,2013-01-04 02:12:00,
2013-01-03 18:18:00,50.6,40.0,30.22,NNW,348,0.0,0.0,67,0.00,OVC,,0.00,0.0,WeatherDisplay:10.37,2013-01-04 02:18:00,
2013-01-03 18:23:00,50.5,40.3,30.22,North,350,0.0,0.0,68,0.00,OVC,,0.00,0.0,WeatherDisplay:10.37,2013-01-04 02:23:00,
2013-01-03 18:28:00,50.4,40.2,30.22,NNW,329,0.0,0.0,68,0.00,OVC,,0.00,0.0,WeatherDisplay:10.37,2013-01-04 02:28:00,
2013-01-03 18:33:00,50.3,40.1,30.22,NW,324,0.4,3.5,68,0.00,OVC,,0.00,0.0,WeatherDisplay:10.37,2013-01-04 02:33:00,
2013-01-03 18:38:00,50.3,40.1,30.22,NW,321,0.0,0.0,68,0.00,OVC,,0.00,0.0,WeatherDisplay:10.37,2013-01-04 02:38:00,
2013-01-03 18:43:00,50.2,40.4,30.22,NW,324,0.0,0.0,69,0.00,OVC,,0.00,0.0,WeatherDisplay:10.37,2013-01-04 02:43:00,
2013-01-03 18:48:00,50.1,40.3,30.22,NW,324,0.0,0.0,69,0.00,OVC,,0.00,0.0,WeatherDisplay:10.37,2013-01-04 02:48:00,
2013-01-03 18:53:00,50.1,40.3,30.22,NNW,327,0.0,0.0,69,0.00,OVC,,0.00,0.0,WeatherDisplay:10.37,2013-01-04 02:53:00,
2013-01-03 18:58:00,50.0,40.2,30.22,NW,323,0.0,0.0,69,0.00,OVC,,0.00,0.0,WeatherDisplay:10.37,2013-01-04 02:58:00,
2013-01-03 19:03:00,50.0,40.6,30.22,NW,325,0.0,0.0,70,0.00,OVC,,0.00,0.0,WeatherDisplay:10.37,2013-01-04 03:03:00,
2013-01-03 19:08:00,49.9,40.5,30.22,NW,324,0.0,0.0,70,0.00,OVC,,0.00,0.0,WeatherDisplay:10.37,2013-01-04 03:08:00,
2013-01-03 19:13:00,49.9,40.5,30.22,NNW,331,1.8,3.5,70,0.00,OVC,,0.00,0.0,WeatherDisplay:10.37,2013-01-04 03:13:00,
2013-01-03 19:18:00,49.8,40.4,30.22,NNW,330,0.0,0.0,70,0.00,OVC,,0.00,0.0,WeatherDisplay:10.37,2013-01-04 03:18:00,
2013-01-03 19:23:00,49.7,40.3,30.22,NNW,330,0.0,0.0,70,0.00,OVC,,0.00,0.0,WeatherDisplay:10.37,2013-01-04 03:23:00,
2013-01-03 19:28:00,49.6,40.6,30.22,NNW,328,1.2,3.5,71,0.00,OVC,,0.00,0.0,WeatherDisplay:10.37,2013-01-04 03:28:00,
2013-01-03 19:33:00,49.6,40.6,30.22,West,281,0.6,3.0,71,0.00,OVC,,0.00,0.0,WeatherDisplay:10.37,2013-01-04 03:33:00,
2013-01-03 19:38:00,49.5,40.5,30.22,NW,311,0.0,2.3,71,0.00,OVC,,0.00,0.0,WeatherDisplay:10.37,2013-01-04 03:38:00,
2013-01-03 19:43:00,49.4,40.4,30.22,NW,311,0.4,1.1,71,0.00,OVC,,0.00,0.0,WeatherDisplay:10.37,2013-01-04 03:43:00,
2013-01-03 19:48:00,49.4,40.7,30.22,NNW,332,2.2,3.5,72,0.00,OVC,,0.00,0.0,WeatherDisplay:10.37,2013-01-04 03:48:00,
2013-01-03 19:53:00,49.3,40.7,30.23,NNW,332,0.0,0.0,72,0.00,OVC,,0.00,0.0,WeatherDisplay:10.37,2013-01-04 03:53:00,
2013-01-03 19:58:00,49.2,40.6,30.23,NNW,332,0.0,0.0,72,0.00,OVC,,0.00,0.0,WeatherDisplay:10.37,2013-01-04 03:58:00,
2013-01-03 20:03:00,49.1,40.5,30.23,NNW,332,0.0,0.0,72,0.00,OVC,,0.00,0.0,WeatherDisplay:10.37,2013-01-04 04:03:00,
2013-01-03 20:08:00,49.1,40.8,30.23,North,358,0.0,0.0,73,0.00,OVC,,0.00,0.0,WeatherDisplay:10.37,2013-01-04 04:08:00,
2013-01-03 20:13:00,49.0,40.7,30.23,North,358,0.0,0.0,73,0.00,OVC,,0.00,0.0,WeatherDisplay:10.37,2013-01-04 04:13:00,
2013-01-03 20:18:00,49.0,40.7,30.23,North,358,0.0,0.0,73,0.00,OVC,,0.00,0.0,WeatherDisplay:10.37,2013-01-04 04:18:00,
2013-01-03 20:23:00,49.0,40.7,30.23,North,358,0.0,0.0,73,0.00,OVC,,0.00,0.0,WeatherDisplay:10.37,2013-01-04 04:23:00,
2013-01-03 20:28:00,48.9,40.6,30.23,North,358,0.0,0.0,73,0.00,OVC,,0.00,0.0,WeatherDisplay:10.37,2013-01-04 04:28:00,
2013-01-03 20:33:00,48.8,40.5,30.23,North,358,0.0,0.0,73,0.00,OVC,,0.00,0.0,WeatherDisplay:10.37,2013-01-04 04:33:00,
2013-01-03 20:38:00,48.8,40.5,30.23,North,358,0.0,0.0,73,0.00,OVC,,0.00,0.0,WeatherDisplay:10.37,2013-01-04 04:38:00,
2013-01-03 20:43:00,48.7,40.4,30.23,North,358,0.0,0.0,73,0.00,OVC,,0.00,0.0,WeatherDisplay:10.37,2013-01-04 04:43:00,
2013-01-03 20:48:00,48.6,40.3,30.23,North,358,0.0,0.0,73,0.00,OVC,,0.00,0.0,WeatherDisplay:10.37,2013-01-04 04:48:00,
2013-01-03 20:53:00,48.5,40.2,30.23,North,358,0.0,0.0,73,0.00,OVC,,0.00,0.0,WeatherDisplay:10.37,2013-01-04 04:53:00,
2013-01-03 20:58:00,48.3,40.0,30.23,North,358,0.0,0.0,73,0.00,OVC,,0.00,0.0,WeatherDisplay:10.37,2013-01-04 04:58:00,
2013-01-03 21:00:00,48.3,40.4,30.23,North,358,0.0,0.0,74,0.00,OVC,,0.00,0.0,WeatherDisplay:10.37,2013-01-04 05:00:00,
2013-01-03 21:01:00,48.2,40.3,30.23,North,358,0.0,0.0,74,0.00,OVC,,0.00,0.0,WeatherDisplay:10.37,2013-01-04 05:01:00,
2013-01-03 21:03:00,48.2,40.3,30.23,North,358,0.0,0.0,74,0.00,OVC,,0.00,0.0,WeatherDisplay:10.37,2013-01-04 05:03:00,
2013-01-03 21:08:00,48.0,40.1,30.23,North,358,0.0,0.0,74,0.00,OVC,,0.00,0.0,WeatherDisplay:10.37,2013-01-04 05:08:00,
2013-01-03 21:13:00,47.8,39.9,30.23,North,358,0.0,0.0,74,0.00,OVC,,0.00,0.0,WeatherDisplay:10.37,2013-01-04 05:13:00,
2013-01-03 21:18:00,47.7,39.8,30.23,North,358,0.0,0.0,74,0.00,OVC,,0.00,0.0,WeatherDisplay:10.37,2013-01-04 05:18:00,
2013-01-03 21:23:00,47.6,40.1,30.23,North,358,0.0,0.0,75,0.00,OVC,,0.00,0.0,WeatherDisplay:10.37,2013-01-04 05:23:00,
2013-01-03 21:28:00,47.5,40.0,30.23,North,358,0.0,0.0,75,0.00,OVC,,0.00,0.0,WeatherDisplay:10.37,2013-01-04 05:28:00,
2013-01-03 21:33:00,47.5,40.3,30.23,North,358,0.0,0.0,76,0.00,OVC,,0.00,0.0,WeatherDisplay:10.37,2013-01-04 05:33:00,
2013-01-03 21:38:00,47.4,40.2,30.24,North,358,0.0,0.0,76,0.00,OVC,,0.00,0.0,WeatherDisplay:10.37,2013-01-04 05:38:00,
2013-01-03 21:43:00,47.4,40.2,30.24,North,358,0.0,0.0,76,0.00,OVC,,0.00,0.0,WeatherDisplay:10.37,2013-01-04 05:43:00,
2013-01-03 21:48:00,47.5,40.3,30.24,North,358,0.0,0.0,76,0.00,OVC,,0.00,0.0,WeatherDisplay:10.37,2013-01-04 05:48:00,
2013-01-03 21:53:00,47.5,40.3,30.24,North,358,0.0,0.0,76,0.00,OVC,,0.00,0.0,WeatherDisplay:10.37,2013-01-04 05:53:00,
2013-01-03 21:58:00,47.5,40.3,30.24,North,358,0.0,0.0,76,0.00,OVC,,0.00,0.0,WeatherDisplay:10.37,2013-01-04 05:58:00,
2013-01-03 22:03:00,47.4,40.2,30.24,North,358,0.0,0.0,76,0.00,OVC,,0.00,0.0,WeatherDisplay:10.37,2013-01-04 06:03:00,
2013-01-03 22:08:00,47.4,40.2,30.25,North,358,0.0,0.0,76,0.00,OVC,,0.00,0.0,WeatherDisplay:10.37,2013-01-04 06:08:00,
2013-01-03 22:13:00,47.3,40.1,30.25,North,358,0.0,0.0,76,0.00,OVC,,0.00,0.0,WeatherDisplay:10.37,2013-01-04 06:13:00,
2013-01-03 22:18:00,47.1,40.3,30.25,North,358,0.0,0.0,77,0.00,OVC,,0.00,0.0,WeatherDisplay:10.37,2013-01-04 06:18:00,
2013-01-03 22:23:00,47.2,40.7,30.25,North,358,0.0,0.0,78,0.00,OVC,,0.00,0.0,WeatherDisplay:10.37,2013-01-04 06:23:00,
2013-01-03 22:28:00,47.2,40.4,30.25,North,358,0.0,0.0,77,0.00,OVC,,0.00,0.0,WeatherDisplay:10.37,2013-01-04 06:28:00,
2013-01-03 22:33:00,47.2,40.7,30.25,North,358,0.0,0.0,78,0.00,OVC,,0.00,0.0,WeatherDisplay:10.37,2013-01-04 06:33:00,
2013-01-03 22:38:00,47.2,40.7,30.25,North,358,0.0,0.0,78,0.00,OVC,,0.00,0.0,WeatherDisplay:10.37,2013-01-04 06:38:00,
2013-01-03 22:43:00,47.2,40.7,30.25,North,358,0.0,0.0,78,0.00,OVC,,0.00,0.0,WeatherDisplay:10.37,2013-01-04 06:43:00,
2013-01-03 22:48:00,47.1,40.6,30.25,North,358,0.0,0.0,78,0.00,OVC,,0.00,0.0,WeatherDisplay:10.37,2013-01-04 06:48:00,
2013-01-03 22:53:00,47.0,40.5,30.25,North,358,0.0,0.0,78,0.00,OVC,,0.00,0.0,WeatherDisplay:10.37,2013-01-04 06:53:00,
2013-01-03 22:58:00,46.9,40.4,30.25,North,358,0.0,0.0,78,0.00,OVC,,0.00,0.0,WeatherDisplay:10.37,2013-01-04 06:58:00,
2013-01-03 23:03:00,46.7,40.2,30.25,North,358,0.0,0.0,78,0.00,OVC,,0.00,0.0,WeatherDisplay:10.37,2013-01-04 07:03:00,
2013-01-03 23:08:00,46.5,40.3,30.24,North,358,0.0,0.0,79,0.00,OVC,,0.00,0.0,WeatherDisplay:10.37,2013-01-04 07:08:00,
2013-01-03 23:13:00,46.4,40.2,30.24,North,358,0.0,0.0,79,0.00,OVC,,0.00,0.0,WeatherDisplay:10.37,2013-01-04 07:13:00,
2013-01-03 23:18:00,46.3,40.5,30.25,North,358,0.0,0.0,80,0.00,OVC,,0.00,0.0,WeatherDisplay:10.37,2013-01-04 07:18:00,
2013-01-03 23:24:00,46.3,40.5,30.25,North,358,0.0,0.0,80,0.00,OVC,,0.00,0.0,WeatherDisplay:10.37,2013-01-04 07:24:00,
2013-01-03 23:29:00,46.3,40.5,30.24,North,358,0.0,0.0,80,0.00,OVC,,0.00,0.0,WeatherDisplay:10.37,2013-01-04 07:29:00,
2013-01-03 23:34:00,46.2,40.4,30.24,North,358,0.0,0.0,80,0.00,OVC,,0.00,0.0,WeatherDisplay:10.37,2013-01-04 07:34:00,
2013-01-03 23:39:00,46.1,40.3,30.24,North,358,0.0,0.0,80,0.00,OVC,,0.00,0.0,WeatherDisplay:10.37,2013-01-04 07:39:00,
2013-01-03 23:44:00,46.0,40.2,30.24,North,358,0.0,0.0,80,0.00,OVC,,0.00,0.0,WeatherDisplay:10.37,2013-01-04 07:44:00,
2013-01-03 23:49:00,46.0,40.5,30.24,North,358,0.0,0.0,81,0.00,OVC,,0.00,0.0,WeatherDisplay:10.37,2013-01-04 07:49:00,
2013-01-03 23:54:00,46.1,40.3,30.24,North,358,0.0,0.0,80,0.00,OVC,,0.00,0.0,WeatherDisplay:10.37,2013-01-04 07:54:00,
2013-01-03 23:59:00,46.0,40.2,30.24,North,358,0.0,0.0,80,0.00,OVC,,0.00,0.0,WeatherDisplay:10.37,2013-01-04 07:59:00,